Date String (YYYY-MM-DD hh:mm:ss) UTC,Instrument flags,absolute air pressure of the measurement (hPa),sample flow rate (lpm),inlet stack bypass flow (lpm),air temperature of the measurement (°C),ambient temperature measured by the external sensor (°C),aerosol sample conditioner tube jacket temperature (°C),OPC LED temperature (°C),internal box temperature (°C),relative humidity of the measurement (%),span deviation,mass concentration of particles derived from Lorenz-Mie calculation of OPC scattering (μg/m³),mass concentration of particles derived from Lorenz-Mie calculation of OPC scattering (μg/m³),mass concentration of particles derived from Lorenz-Mie calculation of OPC scattering (μg/m³)
DateTimeUTC,F1_M11,P_M11,Q1_M11,Q2_M11,T1_M11,T2_M11,T3_M11,T4_M11,T5_M11,U1_M11,ZSPAN_M11,X2_M11,X0_M11,X1_M11
2024-02-26 12:00:00,SystemResetWarning,0820.3,5.00,000.00,020.6,019.9,000.0,028.8,022.2,14.3,0000.0,0001.07,0005.32,0000.65
2024-02-26 12:01:00,SystemResetWarning,0820.3,5.00,000.00,020.6,019.9,000.0,028.8,022.2,14.3,0000.0,0001.04,0004.37,0000.64
2024-02-26 12:02:00,SystemResetWarning,0820.3,5.00,000.00,020.6,019.9,000.0,028.8,022.2,14.3,0000.0,0000.97,0003.55,0000.64
2024-02-26 12:03:00,SystemResetWarning,0820.3,5.00,000.00,020.6,019.9,000.0,028.8,022.3,14.3,0000.0,0000.99,0002.81,0000.64
2024-02-26 12:04:00,SystemResetWarning,0820.2,5.00,000.00,020.6,019.9,000.0,028.8,022.3,14.3,0000.0,0001.02,0002.41,0000.63
2024-02-26 12:05:00,SystemResetWarning,0820.3,4.99,000.00,020.6,019.9,000.0,028.8,022.3,14.3,0000.0,0001.07,0002.58,0000.64
2024-02-26 12:06:00,SystemResetWarning,0820.3,5.01,000.00,020.6,020.0,000.0,028.8,022.3,14.3,0000.0,0001.11,0003.14,0000.65
2024-02-26 12:07:00,SystemResetWarning,0820.3,5.01,000.00,020.6,020.0,000.0,028.8,022.3,14.3,0000.0,0001.17,0004.16,0000.65
2024-02-26 12:08:00,SystemResetWarning,0820.2,5.01,000.00,020.6,020.0,000.0,028.8,022.3,14.3,0000.0,0001.24,0004.31,0000.65
2024-02-26 12:09:00,SystemResetWarning,0820.2,4.99,000.00,020.6,020.0,000.0,028.8,022.3,14.3,0000.0,0001.24,0004.32,0000.65
2024-02-26 12:10:00,SystemResetWarning,0820.2,4.99,000.00,020.7,020.0,000.0,028.8,022.3,14.3,0000.0,0001.20,0004.25,0000.65
2024-02-26 12:11:00,SystemResetWarning,0820.1,5.01,000.00,020.7,020.0,000.0,028.8,022.3,14.3,0000.0,0001.16,0004.20,0000.64
2024-02-26 12:12:00,SystemResetWarning,0820.2,5.00,000.00,020.7,020.0,000.0,028.8,022.4,14.3,0000.0,0001.16,0004.13,0000.63
2024-02-26 12:13:00,SystemResetWarning,0820.2,5.01,000.00,020.7,020.0,000.0,028.8,022.4,14.3,0000.0,0001.23,0004.93,0000.63
2024-02-26 12:14:00,SystemResetWarning,0820.2,5.00,000.00,020.7,020.0,000.0,028.8,022.4,14.3,0000.0,0001.24,0004.93,0000.64
2024-02-26 12:15:00,SystemResetWarning,0820.2,4.99,000.00,020.7,020.1,000.0,028.8,022.4,14.3,0000.0,0001.23,0004.76,0000.65
2024-02-26 12:16:00,SystemResetWarning,0820.1,5.00,000.00,020.7,020.1,000.0,028.8,022.4,14.3,0000.0,0001.20,0004.66,0000.64
2024-02-26 12:17:00,SystemResetWarning,0820.3,5.00,000.00,020.7,020.1,000.0,028.9,022.4,14.3,0000.0,0001.17,0004.33,0000.64
2024-02-26 12:18:00,SystemResetWarning,0820.1,4.99,000.00,020.7,020.1,000.0,028.9,022.4,14.3,0000.0,0001.14,0003.20,0000.64
2024-02-26 12:19:00,SystemResetWarning,0820.1,5.00,000.00,020.7,020.1,000.0,028.9,022.4,14.4,0000.0,0001.05,0002.97,0000.64
2024-02-26 12:20:00,SystemResetWarning,0820.3,5.01,000.00,020.7,020.1,000.0,028.9,022.4,14.4,0000.0,0001.04,0002.96,0000.63
2024-02-26 12:21:00,SystemResetWarning,0820.1,5.01,000.00,020.7,020.1,000.0,028.9,022.4,14.5,0000.0,0001.10,0003.18,0000.63
2024-02-26 12:22:00,SystemResetWarning,0820.1,5.00,000.00,020.7,020.1,000.0,028.9,022.4,14.5,0000.0,0001.11,0003.18,0000.64
2024-02-26 12:23:00,SystemResetWarning,0820.1,4.99,000.00,020.8,020.1,000.0,028.9,022.4,14.5,0000.0,0001.13,0003.21,0000.65
2024-02-26 12:24:00,SystemResetWarning,0820.0,4.99,000.00,020.8,020.1,000.0,028.9,022.4,14.4,0000.0,0001.10,0002.45,0000.64
2024-02-26 12:25:00,SystemResetWarning,0820.2,5.00,000.00,020.8,020.1,000.0,028.9,022.5,14.5,0000.0,0001.07,0002.24,0000.63
2024-02-26 12:26:00,SystemResetWarning,0820.2,5.01,000.00,020.8,020.1,000.0,028.9,022.4,14.4,0000.0,0001.06,0002.21,0000.62
2024-02-26 12:27:00,SystemResetWarning,0820.3,5.00,000.00,020.8,020.1,000.0,028.9,022.5,14.4,0000.0,0001.08,0002.34,0000.62
2024-02-26 12:28:00,SystemResetWarning,0820.1,5.00,000.00,020.8,020.1,000.0,029.0,022.5,14.4,0000.0,0001.04,0002.57,0000.62
2024-02-26 12:29:00,SystemResetWarning,0820.0,5.00,000.00,020.8,020.1,000.0,029.0,022.5,14.3,0000.0,0001.03,0002.48,0000.62
2024-02-26 12:30:00,SystemResetWarning,0820.0,4.99,000.00,020.8,020.1,000.0,029.0,022.5,14.3,0000.0,0001.08,0002.61,0000.63
2024-02-26 12:31:00,SystemResetWarning,0820.0,5.00,000.00,020.8,020.1,000.0,029.0,022.5,14.4,0000.0,0001.10,0002.66,0000.63
2024-02-26 12:32:00,SystemResetWarning,0820.1,5.01,000.00,020.8,020.1,000.0,029.0,022.5,14.4,0000.0,0001.06,0002.59,0000.63
2024-02-26 12:33:00,SystemResetWarning,0820.0,5.01,000.00,020.8,020.2,000.0,029.0,022.5,14.5,0000.0,0001.11,0002.80,0000.63
2024-02-26 12:34:00,SystemResetWarning,0820.0,4.99,000.00,020.8,020.1,000.0,029.0,022.5,14.8,0000.0,0001.18,0002.96,0000.64
2024-02-26 12:35:00,SystemResetWarning,0820.0,4.99,000.00,020.8,020.1,000.0,029.0,022.5,15.0,0000.0,0001.22,0002.93,0000.65
2024-02-26 12:36:00,SystemResetWarning,0820.1,5.00,000.00,020.8,020.1,000.0,029.0,022.5,15.4,0000.0,0001.26,0004.03,0000.66
2024-02-26 12:37:00,SystemResetWarning,0820.1,4.99,000.00,020.8,020.1,000.0,029.0,022.5,15.4,0000.0,0001.30,0005.37,0000.66
2024-02-26 12:38:00,SystemResetWarning,0820.0,5.00,000.00,020.8,020.1,000.0,029.0,022.5,15.4,0000.0,0001.28,0005.98,0000.66
2024-02-26 12:39:00,SystemResetWarning,0820.0,5.00,000.00,020.8,020.1,000.0,029.0,022.5,15.3,0000.0,0001.29,0006.19,0000.66
2024-02-26 12:40:00,SystemResetWarning,0820.1,5.00,000.00,020.8,020.1,000.0,029.0,022.5,15.2,0000.0,0001.31,0006.51,0000.65
2024-02-26 12:41:00,SystemResetWarning,0820.1,5.00,000.00,020.8,020.1,000.0,029.0,022.5,15.3,0000.0,0001.31,0006.53,0000.64
2024-02-26 12:42:00,SystemResetWarning,0820.0,5.00,000.00,020.8,020.1,000.0,029.0,022.5,15.2,0000.0,0001.30,0006.50,0000.64
2024-02-26 12:43:00,SystemResetWarning,0820.0,5.00,000.00,020.8,020.1,000.0,029.0,022.5,15.3,0000.0,0001.30,0006.51,0000.64
2024-02-26 12:44:00,SystemResetWarning,0820.1,5.00,000.00,020.8,020.1,000.0,029.0,022.5,15.2,0000.0,0001.29,0006.38,0000.64
2024-02-26 12:45:00,SystemResetWarning,0820.0,5.00,000.00,020.8,020.1,000.0,029.0,022.5,15.2,0000.0,0001.24,0006.28,0000.63
2024-02-26 12:46:00,SystemResetWarning,0820.0,4.99,000.00,020.8,020.1,000.0,029.0,022.4,15.3,0000.0,0001.19,0006.23,0000.62
2024-02-26 12:47:00,SystemResetWarning,0820.2,5.00,000.00,020.8,020.1,000.0,029.0,022.4,15.2,0000.0,0001.17,0005.65,0000.61
2024-02-26 12:48:00,SystemResetWarning,0820.0,5.00,000.00,020.8,020.0,000.0,029.0,022.4,15.2,0000.0,0001.10,0004.04,0000.59
2024-02-26 12:49:00,SystemResetWarning,0820.1,5.00,000.00,020.8,020.0,000.0,029.0,022.4,15.3,0000.0,0001.09,0003.18,0000.58
2024-02-26 12:50:00,SystemResetWarning,0820.0,4.99,000.00,020.8,020.0,000.0,029.0,022.4,15.4,0000.0,0001.11,0002.74,0000.58
2024-02-26 12:51:00,SystemResetWarning,0820.1,5.01,000.00,020.8,020.0,000.0,029.0,022.4,15.5,0000.0,0001.09,0002.30,0000.58
2024-02-26 12:52:00,SystemResetWarning,0820.0,5.00,000.00,020.8,020.0,000.0,029.0,022.4,15.7,0000.0,0001.09,0002.25,0000.59
2024-02-26 12:53:00,SystemResetWarning,0819.9,5.00,000.00,020.7,020.0,000.0,029.0,022.4,15.7,0000.0,0001.09,0002.32,0000.59
2024-02-26 12:54:00,SystemResetWarning,0820.0,5.00,000.00,020.7,020.0,000.0,029.0,022.4,15.9,0000.0,0001.10,0003.03,0000.59
2024-02-26 12:55:00,SystemResetWarning,0820.1,5.00,000.00,020.7,019.9,000.0,029.0,022.4,16.1,0000.0,0001.08,0002.98,0000.58
2024-02-26 12:56:00,SystemResetWarning,0820.0,5.01,000.00,020.7,019.9,000.0,029.0,022.4,15.9,0000.0,0001.05,0002.87,0000.58
2024-02-26 12:57:00,SystemResetWarning,0820.1,5.00,000.00,020.7,019.9,000.0,029.0,022.3,16.0,0000.0,0001.07,0002.89,0000.58
2024-02-26 12:58:00,SystemResetWarning,0820.0,5.00,000.00,020.7,019.9,000.0,029.0,022.3,15.8,0000.0,0001.05,0002.87,0000.58
2024-02-26 12:59:00,SystemResetWarning,0820.1,5.00,000.00,020.7,019.9,000.0,029.0,022.3,15.9,0000.0,0001.12,0003.11,0000.59
